Date,TemperatureHighF,TemperatureAvgF,TemperatureLowF,DewpointHighF,DewpointAvgF,DewpointLowF,HumidityHigh,HumidityAvg,HumidityLow,PressureMaxIn,PressureMinIn,WindSpeedMaxMPH,WindSpeedAvgMPH,GustSpeedMaxMPH,PrecipitationSumIn
2013-1-1,18.2,7.9,-1.8,2.8,-2.3,-8.9,81,63,45,30.44,30.26,5,1,5,0.00
2013-1-2,30.5,21.0,9.1,24.0,12.9,1.2,81,71,57,30.25,30.11,12,3,12,0.00
2013-1-3,30.8,19.8,11.8,24.2,12.0,4.8,78,71,63,30.46,30.22,20,5,20,0.00
2013-1-4,36.2,25.0,13.4,22.1,16.0,7.2,79,69,51,30.40,30.22,14,2,14,0.00
2013-1-5,39.2,29.1,21.2,30.4,21.4,14.7,82,73,64,30.22,29.98,18,5,18,0.00
2013-1-6,29.1,21.6,14.1,17.1,12.8,6.2,73,69,59,30.39,30.16,22,5,22,0.00
2013-1-7,45.1,33.7,23.9,27.0,22.0,15.9,80,63,47,30.26,30.04,20,4,20,0.00
2013-1-8,47.1,35.7,26.6,31.3,26.4,20.9,88,70,51,30.12,29.88,20,4,20,0.00
2013-1-9,43.8,37.1,29.1,31.0,27.4,23.1,81,68,56,30.48,30.12,13,2,13,0.00
2013-1-10,42.7,36.4,31.5,33.2,27.3,21.0,85,70,42,30.43,29.76,14,4,14,0.00
2013-1-11,53.7,45.3,36.5,44.3,39.1,32.3,87,79,62,29.77,29.48,24,7,24,0.00
2013-1-12,52.0,23.7,13.8,39.3,12.2,1.8,78,61,55,30.19,29.55,22,8,22,0.00
2013-1-13,19.2,13.0,7.8,6.3,2.0,-2.0,68,61,55,30.42,30.13,20,6,20,0.00
2013-1-14,30.2,18.1,6.8,9.7,5.0,0.0,75,58,35,30.56,30.42,10,1,10,0.00
2013-1-15,35.9,24.0,14.0,12.1,8.6,6.1,74,54,33,30.46,30.11,14,2,14,0.00
2013-1-16,48.5,34.5,22.7,31.7,21.7,8.1,76,59,49,30.26,29.93,15,6,15,0.00
2013-1-17,36.2,26.1,16.7,23.0,13.9,7.0,77,61,38,30.54,30.25,4,0,4,0.00
2013-1-18,55.6,43.1,23.4,29.5,26.5,15.7,75,53,35,30.41,29.89,0,0,0,0.00
2013-1-19,51.6,40.3,17.9,31.0,24.6,0.7,67,54,32,30.34,29.84,28,6,28,0.00
2013-1-20,17.9,12.5,6.9,5.9,2.1,-1.9,71,63,49,30.50,30.33,14,3,14,0.00
2013-1-21,9.0,4.1,-3.2,-1.5,-7.3,-15.6,71,58,52,30.57,30.45,20,6,20,0.00
2013-1-22,18.5,10.9,2.8,0.7,-3.7,-7.2,63,52,40,30.55,30.38,10,1,10,0.00
2013-1-23,27.5,17.0,5.0,14.6,4.3,-7.0,67,57,47,30.63,30.26,18,7,18,0.00
2013-1-24,20.5,11.4,3.2,2.0,-6.3,-10.5,58,45,33,30.72,30.30,18,6,18,0.00
2013-1-25,37.7,24.9,13.4,20.8,10.9,-2.0,71,55,44,30.38,30.16,20,6,20,0.00
2013-1-26,36.7,22.9,8.6,12.4,4.3,-1.6,64,46,29,30.44,30.20,17,6,17,0.00
2013-1-27,38.3,34.7,32.1,34.2,26.7,11.8,86,74,42,30.19,29.78,17,5,17,0.01
2013-1-28,49.9,38.5,34.7,46.2,34.7,30.9,87,86,85,29.95,29.59,12,3,12,0.00
2013-1-29,58.3,38.6,31.6,54.5,33.8,26.3,88,83,78,29.72,29.52,20,6,20,0.00
2013-1-30,31.5,22.7,14.2,26.3,16.6,5.7,84,77,67,29.95,29.55,28,12,28,0.00
2013-1-31,14.0,6.0,-0.6,5.8,-3.9,-10.8,71,63,57,30.50,29.96,23,10,23,0.00
2013-2-1,25.4,7.6,-5.1,14.5,-3.6,-13.3,69,60,46,30.53,30.12,17,5,17,0.00
2013-2-2,32.6,21.5,16.0,25.2,12.4,4.7,81,68,54,30.28,30.05,17,5,17,0.00
2013-2-3,34.5,26.6,17.0,24.8,14.2,9.2,74,60,40,30.26,29.84,28,7,28,0.00
2013-2-4,36.0,25.1,19.9,24.4,16.5,12.5,75,69,62,30.09,29.79,17,4,17,0.00
2013-2-5,45.2,32.1,22.2,31.6,23.5,14.9,81,71,56,30.16,29.86,18,4,18,0.00
2013-2-6,45.9,36.0,23.8,31.5,26.7,19.1,83,70,55,30.17,29.95,17,5,17,0.00
2013-2-7,41.5,34.0,27.9,34.6,28.2,21.9,89,79,63,30.27,29.91,17,5,17,0.00
2013-2-8,30.6,27.4,24.0,22.2,20.5,17.8,78,75,69,30.43,30.27,17,5,17,0.00
2013-2-9,37.8,31.9,27.5,28.9,25.2,21.3,82,76,69,30.32,29.87,22,9,22,0.00
2013-2-10,51.9,38.2,32.5,43.3,31.1,21.0,86,76,54,29.87,29.29,26,12,26,0.00
2013-2-11,32.4,30.2,27.9,21.6,19.6,18.2,69,64,61,30.19,29.64,33,13,33,0.00
2013-2-12,45.3,34.1,21.3,24.0,21.0,15.1,81,60,39,30.21,29.91,13,3,13,0.00
2013-2-13,52.0,38.5,26.7,28.0,24.1,19.4,75,58,34,29.92,29.72,13,4,13,0.00
2013-2-14,42.1,35.7,24.0,27.9,24.2,10.2,72,63,47,30.25,29.74,24,9,24,0.00
2013-2-15,27.7,22.0,16.7,11.4,8.7,5.1,71,57,44,30.41,30.25,16,5,16,0.00
2013-2-16,37.0,23.9,10.7,14.8,10.7,4.6,77,59,35,30.39,30.15,12,2,12,0.00
2013-2-17,47.8,34.2,20.8,23.3,18.5,12.8,74,54,34,30.15,29.68,23,8,23,0.00
2013-2-18,42.9,31.0,16.8,30.9,20.2,4.7,77,64,55,30.00,29.59,28,9,28,0.00
2013-2-19,22.5,15.9,7.8,5.7,0.9,-3.1,66,52,38,30.48,30.00,26,13,26,0.00
2013-2-20,23.9,14.1,1.2,7.2,-1.5,-7.8,66,51,35,30.55,30.38,12,3,12,0.00
2013-2-21,25.8,22.0,18.5,19.3,12.7,7.1,82,68,52,30.40,29.90,22,7,22,0.00
2013-2-22,26.2,23.8,22.1,19.7,17.5,13.7,82,77,70,30.06,29.84,17,5,17,0.00
2013-2-23,34.4,24.3,12.2,18.9,14.2,6.4,78,66,50,30.06,29.97,12,2,12,0.00
2013-2-24,45.7,30.4,15.9,26.2,19.6,10.3,79,65,42,30.12,30.00,7,1,7,0.00
2013-2-25,40.9,34.5,28.3,27.3,24.7,22.1,79,68,51,30.14,29.94,10,2,10,0.00
2013-2-26,32.1,30.8,28.4,27.6,25.4,22.5,85,80,71,29.94,29.76,21,8,21,0.00
2013-2-27,31.2,27.9,24.7,24.2,22.5,17.9,84,80,70,30.06,29.84,17,6,17,0.00
2013-2-28,31.7,26.9,22.4,23.0,19.6,15.7,81,74,66,30.24,30.06,15,6,15,0.00
2013-3-1,30.5,26.8,25.0,20.7,18.0,13.3,77,69,60,30.39,30.22,13,4,13,0.00
2013-3-2,29.7,23.9,15.5,18.3,14.7,9.3,76,68,60,30.41,30.24,10,3,10,0.00
2013-3-3,37.6,29.5,21.8,21.4,17.0,13.5,73,60,44,30.24,29.95,21,8,21,0.00
2013-3-4,39.9,33.2,28.7,27.8,25.4,21.4,82,73,60,30.00,29.82,20,7,20,0.00
2013-3-5,32.2,29.3,26.3,27.5,21.6,17.3,84,73,64,30.36,29.99,23,8,23,0.00
2013-3-6,31.4,25.7,18.9,18.7,16.8,12.9,77,69,56,30.50,30.36,14,4,14,0.00
2013-3-7,37.4,26.4,14.2,21.2,16.9,8.9,81,68,50,30.45,30.30,16,5,16,0.00
2013-3-8,46.7,36.1,25.4,32.0,25.5,19.0,81,66,49,30.34,30.06,18,7,18,0.00
2013-3-9,42.2,39.6,37.6,38.0,34.9,31.7,86,83,78,30.06,29.66,18,6,18,0.00
2013-3-10,39.6,35.0,31.5,35.8,30.9,27.2,86,85,84,29.86,29.67,24,6,24,0.00
2013-3-11,31.5,26.8,24.3,27.1,21.1,17.1,84,79,72,30.02,29.79,17,3,17,0.00
2013-3-12,33.2,26.8,21.5,23.6,18.3,14.2,78,70,63,30.32,30.01,25,9,25,0.00
2013-3-13,34.0,24.7,16.2,17.4,13.7,9.4,81,63,44,30.53,30.32,14,4,14,0.00
2013-3-14,50.1,37.8,26.8,32.5,25.7,15.4,80,62,43,30.38,30.11,14,4,14,0.00
2013-3-15,62.4,42.1,29.1,41.8,33.0,24.1,84,72,42,30.11,29.73,12,2,12,0.00
2013-3-16,37.1,33.0,27.4,31.5,23.5,17.2,81,68,53,30.26,29.82,21,8,21,0.00
2013-3-17,40.4,31.6,22.0,25.3,19.2,13.7,71,60,44,30.26,29.88,23,8,23,0.00
2013-3-18,34.4,29.6,22.4,29.8,20.1,10.1,84,68,51,30.06,29.77,28,9,28,0.00
2013-3-19,37.0,25.9,17.1,19.0,11.6,4.3,69,55,39,30.33,30.06,16,6,16,0.01
2013-3-20,26.8,21.6,14.8,14.9,6.7,0.5,68,53,40,30.42,30.22,21,9,21,0.00
2013-3-21,36.4,24.1,10.5,14.6,7.8,2.8,73,51,31,30.23,30.03,12,3,12,0.00
2013-3-22,40.1,29.7,19.1,22.1,14.6,11.0,79,55,31,30.14,30.05,9,2,9,0.00
2013-3-23,40.7,32.4,27.5,25.3,19.5,13.5,78,60,36,30.18,30.06,12,3,12,0.00
2013-3-24,32.0,29.5,27.1,25.2,23.1,19.9,82,77,62,30.08,29.96,20,6,20,0.00
2013-3-25,35.5,30.8,27.2,24.2,21.1,18.2,83,68,51,30.32,30.03,20,6,20,0.00
2013-3-26,40.1,30.3,22.5,21.0,17.7,14.5,73,60,40,30.41,30.32,15,4,15,0.00
2013-3-27,49.2,36.1,21.8,24.1,20.2,16.0,81,55,32,30.40,30.29,12,2,12,0.00
2013-3-28,59.0,43.4,27.5,31.3,26.1,21.3,81,53,30,30.35,30.24,17,3,17,0.00
2013-3-29,64.8,49.4,31.4,33.0,28.8,25.6,82,49,24,30.30,30.12,16,4,16,0.00
2013-3-30,61.4,51.0,44.7,49.0,40.4,30.3,82,68,46,30.12,29.88,15,4,15,0.01
2013-3-31,51.9,42.6,33.8,39.2,29.3,16.8,85,62,27,30.14,29.91,21,7,21,0.00
2013-4-1,39.7,31.0,23.0,19.2,14.1,10.7,68,51,31,30.36,30.14,21,6,21,0.00
2013-4-2,48.2,34.1,20.0,20.6,16.1,10.8,77,51,24,30.40,30.33,20,3,20,0.00
2013-4-3,53.6,39.2,26.8,19.6,17.0,14.1,69,44,22,30.46,30.28,15,3,15,0.00
2013-4-4,63.4,47.5,32.2,34.8,24.3,15.5,57,41,25,30.28,30.05,17,4,17,0.00
2013-4-5,61.6,48.7,31.6,32.4,26.0,19.9,81,45,22,30.23,29.82,22,7,22,0.00
2013-4-6,69.5,58.7,48.1,43.3,38.3,32.5,68,47,37,29.82,29.53,22,9,22,0.00
2013-4-7,68.0,50.9,34.1,41.4,36.4,29.0,84,61,34,29.96,29.66,16,4,16,0.00
2013-4-8,76.7,63.3,48.2,54.0,48.5,41.3,85,61,33,29.77,29.61,20,3,20,0.01
2013-4-9,64.3,52.2,42.8,56.0,47.2,38.3,86,83,71,29.94,29.68,18,6,18,0.00
2013-4-10,42.9,40.2,38.9,38.4,35.6,34.4,85,83,81,29.98,29.74,20,5,20,0.00
2013-4-11,41.6,38.5,36.5,37.2,33.7,30.8,86,83,76,29.77,29.62,16,2,16,0.00
2013-4-12,37.1,37.1,37.1,31.8,31.8,31.8,81,81,81,29.66,29.66,0,0,6,0.00
2013-4-13,37.1,37.1,37.1,31.8,31.8,31.8,81,81,81,29.66,29.66,0,0,6,0.00
2013-4-14,69.0,49.6,37.1,51.1,40.3,31.8,81,72,46,29.66,29.42,30,4,30,0.00
2013-4-15,50.8,41.6,36.3,40.0,30.3,24.3,77,64,50,30.11,29.65,20,4,20,0.00
2013-4-16,51.7,42.1,30.7,31.6,28.2,24.3,78,59,42,30.29,30.10,15,4,15,0.15
2013-4-17,47.2,43.3,40.6,43.1,36.7,31.1,89,78,55,30.22,29.58,25,6,25,2.16
2013-4-18,42.8,37.8,34.3,38.6,32.4,26.8,89,81,71,29.79,29.58,22,10,22,0.64
2013-4-19,43.4,36.1,30.4,27.2,22.8,18.8,75,59,39,30.13,29.74,29,13,29,0.00
2013-4-20,52.4,39.1,26.7,23.1,19.3,11.7,74,49,21,30.33,30.13,18,4,18,0.00
2013-4-21,69.2,53.2,42.4,45.1,31.6,21.9,74,46,20,30.27,30.07,23,9,23,0.03
2013-4-22,70.5,53.4,37.1,46.6,42.8,31.4,85,70,35,30.17,29.91,20,5,20,0.50
2013-4-23,43.2,36.6,32.9,31.4,25.3,18.6,80,64,44,30.20,30.09,20,9,20,0.02
2013-4-24,56.7,42.5,27.3,33.4,23.5,15.9,81,51,22,30.22,30.05,20,6,20,0.00
2013-4-25,66.0,49.6,34.4,32.3,26.6,21.1,72,45,20,30.31,30.14,18,6,18,0.00
2013-4-26,70.3,58.8,50.0,45.9,40.4,32.2,72,51,39,30.21,30.09,28,8,28,0.00
2013-4-27,72.8,57.8,43.9,44.6,42.2,38.1,83,59,32,30.24,29.99,16,3,16,0.00
2013-4-28,80.1,63.3,46.4,48.6,44.6,40.4,82,54,28,30.01,29.74,18,5,18,0.00
2013-4-29,84.5,69.7,55.7,58.5,51.6,47.4,76,55,33,29.77,29.51,20,4,20,0.00
2013-4-30,85.8,75.4,60.0,58.1,49.1,41.3,58,40,30,29.85,29.51,25,9,25,0.00
2013-5-1,60.0,49.8,39.6,45.1,37.1,31.0,74,62,51,30.36,29.85,28,13,28,0.00
2013-5-2,38.9,34.5,33.2,32.5,29.9,28.7,84,83,73,30.50,30.32,25,10,25,1.39
2013-5-3,34.4,33.6,32.9,29.9,29.1,28.5,85,83,80,30.41,30.02,20,9,20,0.53
2013-5-4,47.1,40.5,34.3,42.7,36.4,29.7,86,85,83,30.11,29.94,21,5,21,0.80
2013-5-5,60.2,50.0,43.1,51.1,44.2,38.9,86,81,71,30.15,30.07,12,4,12,0.04
2013-5-6,77.3,60.1,45.8,52.2,45.8,41.1,85,63,30,30.13,30.01,15,3,15,0.00
2013-5-7,84.3,66.7,48.7,50.7,43.5,34.1,84,50,18,30.07,29.95,12,1,12,0.00
2013-5-8,75.5,61.7,51.2,56.5,50.9,44.6,83,70,38,30.01,29.91,13,1,13,0.08
2013-5-9,71.6,60.6,54.4,56.4,53.2,47.7,86,77,50,29.94,29.83,16,4,16,1.13
2013-5-10,70.3,56.6,48.4,49.0,44.9,42.3,82,67,38,30.05,29.93,16,5,16,0.00
2013-5-11,57.7,52.5,44.0,43.2,26.2,12.1,80,40,17,30.23,29.96,26,8,26,0.00
2013-5-12,64.5,54.8,42.4,26.4,18.4,10.7,51,26,13,30.30,30.13,15,4,15,0.00
2013-5-13,79.8,61.3,37.8,47.0,35.3,25.9,71,41,19,30.16,29.82,26,6,26,0.00
2013-5-14,98.4,81.1,62.4,58.2,50.3,40.8,67,39,19,29.82,29.57,21,6,21,0.00
2013-5-15,86.1,74.5,62.3,48.5,37.8,21.6,48,29,11,29.90,29.70,15,3,15,0.00
2013-5-16,86.0,72.9,58.5,61.1,53.8,42.8,66,52,38,29.90,29.78,17,3,17,0.00
2013-5-17,86.8,73.6,63.4,61.3,57.3,53.1,80,59,34,29.92,29.81,16,4,16,0.00
2013-5-18,88.2,74.4,59.8,61.5,58.1,54.6,84,60,35,29.92,29.73,18,4,18,0.00
2013-5-19,90.7,74.5,60.6,63.6,57.9,50.3,85,60,27,29.76,29.50,29,7,29,0.86
2013-5-20,81.9,67.6,59.5,59.9,55.9,52.6,86,69,38,29.66,29.52,20,6,20,0.74
2013-5-21,71.9,64.0,59.0,56.2,48.8,42.4,84,60,39,29.68,29.55,17,4,17,0.00
2013-5-22,64.0,58.0,53.7,54.5,49.5,46.3,82,73,64,29.90,29.65,15,4,15,0.07
2013-5-23,74.0,61.0,52.4,48.8,44.4,35.5,83,58,26,30.26,29.90,17,5,17,0.00
2013-5-24,74.3,68.4,60.5,46.8,43.0,38.7,56,41,28,30.32,30.14,20,8,20,0.00
2013-5-25,61.9,55.7,52.2,51.9,48.0,41.5,84,76,49,30.25,30.11,24,5,24,0.62
2013-5-26,64.2,56.5,52.2,56.5,50.3,46.2,85,80,70,30.16,29.90,20,5,20,0.60
2013-5-27,79.8,67.0,58.2,60.7,57.2,53.7,87,72,47,29.99,29.67,33,3,33,1.07
2013-5-28,83.6,71.5,61.9,64.1,60.6,57.4,86,70,45,29.74,29.58,12,2,12,0.83
2013-5-29,86.4,70.7,64.8,67.5,61.1,55.2,85,72,48,29.77,29.62,20,6,20,1.64
2013-5-30,74.2,69.4,64.5,63.2,59.0,55.8,81,70,59,29.67,29.54,28,8,28,0.08
2013-5-31,80.7,70.6,61.3,60.8,58.2,51.1,84,66,44,29.68,29.61,22,7,22,0.00
2013-6-1,71.0,62.9,56.1,59.8,52.2,45.8,82,68,56,29.94,29.61,15,4,15,0.20
2013-6-2,71.0,58.9,50.6,47.6,42.8,39.1,76,57,34,30.09,29.94,21,5,21,0.00
2013-6-3,77.8,62.4,45.4,48.7,44.1,40.6,85,56,29,30.09,29.92,15,4,15,0.00
2013-6-4,68.9,62.2,56.0,59.1,53.3,47.3,84,73,60,30.05,29.94,18,4,18,0.29
2013-6-5,73.5,64.6,57.2,59.6,55.8,49.3,86,74,47,30.00,29.91,10,2,10,0.78
2013-6-6,72.5,62.4,52.5,53.7,49.4,46.8,82,64,42,29.98,29.91,16,4,16,0.00
2013-6-7,74.8,61.3,50.4,52.4,48.3,44.8,85,65,37,30.03,29.92,12,2,12,0.00
2013-6-8,78.4,63.2,49.9,58.4,52.1,45.3,86,69,39,29.94,29.75,16,3,16,0.27
2013-6-9,73.6,65.6,61.4,62.1,57.7,55.7,85,76,58,29.76,29.69,15,4,15,0.35
2013-6-10,86.0,68.5,59.0,61.4,58.1,54.5,86,72,40,29.89,29.74,9,1,9,0.00
2013-6-11,92.5,76.9,62.1,69.4,63.9,57.2,85,66,41,29.88,29.69,25,2,25,0.00
2013-6-12,93.5,79.9,66.1,70.2,64.2,53.1,83,60,42,29.86,29.65,21,7,21,0.00
2013-6-13,89.0,73.3,59.9,56.8,52.7,45.5,77,51,24,30.04,29.86,15,3,15,0.00
2013-6-14,80.3,68.5,62.9,62.6,57.7,53.5,85,69,51,30.06,29.83,26,4,26,0.76
2013-6-15,86.9,73.0,63.2,68.5,62.6,58.4,86,71,43,30.00,29.82,18,3,18,0.11
2013-6-16,92.3,77.1,67.0,66.1,55.1,35.8,83,54,16,29.95,29.89,12,2,12,0.00
2013-6-17,93.5,76.8,60.5,59.1,52.5,43.3,83,48,18,29.96,29.87,12,2,12,0.00
2013-6-18,88.5,75.3,60.8,58.0,52.7,46.3,76,49,25,29.99,29.92,10,1,10,0.00
2013-6-19,90.3,76.2,64.0,62.4,59.2,53.3,82,59,30,30.04,29.94,16,4,16,0.00
2013-6-20,91.5,80.3,67.3,64.2,61.0,57.9,73,53,36,29.99,29.87,21,8,21,0.00
2013-6-21,92.1,81.6,76.3,72.3,67.6,62.9,74,63,48,29.94,29.79,20,7,20,0.00
2013-6-22,95.5,84.3,73.3,70.2,66.2,59.2,69,55,39,29.97,29.79,20,6,20,0.00
2013-6-23,85.3,77.0,66.7,67.5,64.6,58.7,83,67,46,29.94,29.77,18,5,18,0.46
2013-6-24,81.3,72.4,67.2,69.7,64.8,60.9,86,78,56,29.96,29.78,21,3,21,0.96
2013-6-25,93.1,80.0,70.5,70.8,67.7,62.0,86,68,38,29.80,29.67,18,4,18,0.07
2013-6-26,94.0,83.3,74.9,74.6,66.0,55.6,78,59,30,29.82,29.61,18,3,18,0.00
2013-6-27,89.8,77.7,65.9,65.2,61.8,57.8,83,60,35,29.93,29.81,12,2,12,0.00
2013-6-28,87.8,78.1,68.5,60.2,53.1,43.2,70,45,22,29.87,29.75,24,6,24,0.00
2013-6-29,77.5,71.1,65.1,60.2,54.4,50.1,73,56,40,29.90,29.75,25,7,25,0.00
2013-6-30,82.6,69.6,59.1,54.3,48.6,37.7,77,51,24,30.07,29.90,15,4,15,0.00
2013-7-1,86.6,71.5,56.3,54.1,47.5,40.8,76,47,22,30.13,30.07,15,2,15,0.00
2013-7-2,89.7,71.5,56.2,59.7,52.5,46.6,80,55,23,30.12,30.00,13,2,13,0.01
2013-7-3,88.4,71.6,56.7,59.2,54.4,45.6,85,59,26,30.05,29.95,13,2,13,0.00
2013-7-4,90.4,76.3,60.0,57.5,54.6,48.5,83,51,25,30.01,29.91,18,4,18,0.00
2013-7-5,92.6,78.9,63.8,59.5,56.0,53.6,71,48,28,29.96,29.86,20,6,20,0.00
2013-7-6,95.8,81.7,68.8,62.6,59.3,56.6,65,48,30,29.93,29.82,20,6,20,0.00
2013-7-7,95.8,83.8,72.7,68.2,62.5,58.3,66,50,31,29.87,29.81,20,5,20,0.00
2013-7-8,94.8,83.5,76.5,71.1,67.4,63.5,80,59,40,29.93,29.86,10,2,10,0.00
2013-7-9,98.0,84.0,74.9,72.4,70.1,67.6,82,65,41,29.94,29.81,12,2,12,0.05
2013-7-10,87.2,77.7,66.4,68.8,55.7,43.6,73,50,23,30.04,29.86,18,4,18,0.00
2013-7-11,91.1,75.6,60.4,57.2,53.3,47.4,81,50,24,30.10,29.99,14,2,14,0.00
2013-7-12,90.7,77.7,65.1,58.0,55.7,53.3,69,49,30,30.06,29.95,20,7,20,0.00
2013-7-13,83.3,74.4,66.9,62.6,56.6,50.6,64,54,46,30.04,29.97,17,6,17,0.00
2013-7-14,91.8,78.9,66.2,61.3,58.9,55.6,74,52,31,30.14,30.04,18,3,18,0.00
2013-7-15,92.8,80.3,66.0,68.4,64.2,58.9,82,60,40,30.20,30.10,15,2,15,0.00
2013-7-16,98.2,85.1,72.4,69.2,66.2,62.3,81,56,32,30.22,30.14,12,2,12,0.00
2013-7-17,100.9,86.3,73.4,68.5,65.5,59.5,79,54,28,30.26,30.13,12,2,12,0.00
2013-7-18,97.2,86.1,75.4,68.1,64.7,59.4,75,52,30,30.14,29.88,16,3,16,0.00
2013-7-19,98.8,85.7,73.8,67.3,62.8,54.2,63,48,24,29.89,29.77,12,3,12,0.00
2013-7-20,97.3,79.2,62.0,61.1,56.0,45.2,82,50,18,29.94,29.83,7,1,7,0.00
2013-7-21,84.2,73.4,65.4,68.6,62.6,57.3,81,70,49,29.89,29.78,15,2,15,0.19
2013-7-22,96.8,79.8,65.7,70.3,64.2,59.3,85,63,33,29.90,29.67,18,3,18,0.54
2013-7-23,83.3,70.8,63.5,63.6,57.1,53.0,85,64,38,29.98,29.77,14,2,14,0.00
2013-7-24,86.1,70.8,57.2,56.3,54.1,50.0,85,59,32,30.06,29.98,9,1,9,0.00
2013-7-25,90.6,76.1,63.4,62.9,58.9,55.5,78,57,35,30.04,29.92,15,4,15,0.00
2013-7-26,79.5,71.7,61.6,64.6,55.2,46.1,84,59,32,30.04,29.91,18,5,18,0.10
2013-7-27,73.7,62.7,52.4,50.4,44.8,38.5,81,55,29,30.10,29.99,17,3,17,0.00
2013-7-28,80.2,65.5,51.8,50.9,44.7,41.1,72,50,26,30.06,29.98,13,2,13,0.00
2013-7-29,78.0,66.8,53.9,57.2,52.9,48.6,84,63,41,30.11,30.04,16,2,16,0.00
2013-7-30,74.0,69.5,64.8,66.2,63.4,57.1,86,81,69,30.07,30.02,9,1,9,0.40
2013-7-31,88.4,75.7,65.2,67.9,60.0,52.3,83,60,36,30.11,29.99,10,1,10,0.00
2013-8-1,93.3,77.1,61.1,64.0,55.7,45.6,72,51,21,30.06,29.86,10,1,10,0.00
2013-8-2,86.0,74.9,66.5,64.9,60.1,52.3,71,61,43,29.99,29.86,17,2,17,0.00
2013-8-3,82.5,72.8,63.1,59.0,53.6,45.8,73,54,29,30.16,29.99,12,2,12,0.00
2013-8-4,86.5,73.1,56.8,58.9,52.5,45.7,73,52,30,30.18,30.01,15,3,15,0.00
2013-8-5,88.2,76.7,67.0,71.1,63.6,56.5,70,65,46,30.01,29.75,14,2,14,0.00
2013-8-6,94.3,79.9,67.7,71.8,62.2,50.9,70,56,34,29.87,29.73,12,2,12,0.00
2013-8-7,83.5,73.1,68.1,65.8,58.1,55.0,68,60,44,29.99,29.76,13,2,13,0.00
2013-8-8,86.3,73.8,59.1,62.7,56.1,47.3,70,56,32,30.02,29.94,8,1,8,0.00
2013-8-9,82.2,75.1,66.3,66.6,58.6,49.3,69,58,33,30.11,29.97,13,2,13,0.00
2013-8-10,89.2,73.6,57.4,60.6,52.8,42.6,70,51,29,30.19,30.06,9,1,9,0.00
2013-8-11,90.1,78.6,67.9,62.9,58.9,56.6,68,52,34,30.09,29.95,12,3,12,0.00
2013-8-12,84.9,74.1,66.3,65.7,54.5,49.8,67,52,34,30.04,29.95,15,4,15,0.29
2013-8-13,81.6,69.5,57.1,59.2,50.7,44.1,67,53,32,30.16,30.03,12,2,12,0.00
2013-8-14,81.4,68.2,54.1,53.0,46.5,40.6,67,48,26,30.22,30.11,9,1,9,0.00
2013-8-15,75.9,67.9,59.9,56.2,50.5,46.5,67,55,37,30.15,30.08,16,3,16,0.01
2013-8-16,83.8,68.0,53.1,56.1,46.6,38.3,67,49,26,30.19,30.12,12,1,12,0.00
2013-8-17,88.6,70.9,54.0,57.2,48.0,38.6,67,47,24,30.22,30.10,13,1,13,0.00
2013-8-18,87.0,73.2,57.3,57.7,52.5,43.3,66,51,29,30.16,30.04,14,2,14,0.00
2013-8-19,88.5,74.6,59.8,62.3,55.5,42.7,65,52,36,30.07,29.95,17,3,17,0.00
2013-8-20,93.2,81.9,73.0,65.5,61.8,59.6,64,52,34,29.97,29.88,21,6,21,0.00
2013-8-21,95.5,84.4,76.0,65.3,62.8,59.5,64,50,31,29.97,29.90,16,4,16,0.00
2013-8-22,87.3,79.8,70.6,66.9,63.6,56.0,64,58,44,30.07,29.94,10,1,10,0.00
2013-8-23,92.2,79.7,68.2,70.8,61.0,47.5,64,53,45,30.09,29.99,17,3,17,0.00
2013-8-24,96.4,83.7,72.6,70.1,64.6,57.9,65,54,36,30.10,30.00,22,6,22,0.00
2013-8-25,98.3,86.2,76.4,66.9,64.1,57.6,64,50,28,30.12,30.01,20,6,20,0.00
2013-8-26,100.5,87.4,74.9,70.5,65.0,59.8,65,50,27,30.07,29.90,15,4,15,0.00
2013-8-27,99.1,88.1,80.1,67.4,65.7,63.0,63,49,33,29.92,29.82,17,4,17,0.00
2013-8-28,100.8,87.2,76.6,66.7,62.4,56.8,63,46,25,29.95,29.87,12,2,12,0.00
2013-8-29,99.3,85.7,71.2,70.9,65.6,57.5,66,53,33,30.00,29.86,16,2,16,0.00
2013-8-30,104.8,88.9,75.6,73.8,66.2,55.6,66,51,21,29.86,29.72,13,3,13,0.00
2013-8-31,96.4,81.9,68.0,70.1,61.8,54.5,66,53,26,29.82,29.73,9,1,9,0.00
2013-9-1,84.0,75.9,67.0,65.1,56.4,48.3,65,52,31,29.94,29.70,22,4,22,0.83
2013-9-2,81.3,67.8,55.3,57.3,48.7,38.9,65,52,30,30.05,29.94,12,2,12,0.00
2013-9-3,85.7,68.2,51.3,57.6,47.7,34.4,65,50,28,30.12,30.01,6,1,6,0.00
2013-9-4,94.3,76.6,59.2,62.2,53.5,41.3,65,47,24,30.13,30.02,12,1,12,0.00
2013-9-5,96.7,80.9,69.7,64.5,59.1,53.3,63,50,26,30.17,30.07,10,1,10,0.00
2013-9-6,94.1,79.8,64.6,61.0,54.9,47.6,65,44,26,30.10,29.90,16,4,16,0.00
2013-9-7,96.2,82.9,74.9,68.6,62.9,56.3,62,52,35,29.91,29.81,13,3,13,0.00
2013-9-8,92.2,80.9,70.8,69.5,61.6,45.5,62,52,40,29.89,29.77,10,2,10,0.00
2013-9-9,101.8,85.7,72.2,64.5,57.4,51.7,62,41,20,29.82,29.74,17,4,17,0.00
2013-9-10,98.3,85.1,75.2,64.3,58.6,55.8,59,42,25,29.95,29.81,21,3,21,0.00
2013-9-11,87.8,79.6,71.1,67.1,61.8,54.6,61,55,42,30.06,29.94,12,2,12,0.00
2013-9-12,80.3,71.1,60.4,60.2,47.1,35.5,63,45,21,30.17,30.03,18,4,18,0.00
2013-9-13,76.0,63.0,51.2,47.0,42.7,37.8,64,50,29,30.25,30.10,12,1,12,0.00
2013-9-14,79.3,65.4,51.4,41.9,38.8,33.1,64,41,21,30.13,29.89,17,4,17,0.00
2013-9-15,72.5,67.3,62.6,58.6,51.0,41.7,63,56,38,30.23,29.83,16,5,16,0.04
2013-9-16,67.9,60.5,54.5,53.0,45.4,38.5,63,57,51,30.36,30.23,12,2,12,0.00
2013-9-17,67.7,59.9,55.0,47.9,40.7,34.3,63,49,41,30.26,29.98,12,4,12,0.81
2013-9-18,92.2,78.4,67.1,66.9,57.8,43.6,64,50,39,29.98,29.70,22,7,22,0.00
2013-9-19,87.8,80.5,77.3,68.1,65.1,63.1,64,60,46,29.78,29.64,20,6,20,0.00
2013-9-20,70.8,63.1,54.0,49.2,46.9,42.5,66,56,44,30.00,29.92,16,3,16,0.00
2013-9-21,75.2,59.1,43.9,46.4,39.6,28.3,67,51,25,30.05,29.91,8,1,8,0.00
2013-9-22,81.0,65.4,52.6,50.9,46.3,39.2,67,52,33,29.98,29.86,15,4,15,0.00
2013-9-23,78.5,66.2,56.8,51.4,46.7,43.6,66,51,32,29.95,29.82,20,6,20,0.00
2013-9-24,77.2,66.2,59.5,57.4,51.3,47.1,64,59,45,29.89,29.82,12,2,12,0.00
2013-9-25,81.1,67.6,53.5,56.5,50.4,35.6,67,55,39,29.94,29.81,13,1,13,0.00
2013-9-26,85.9,72.7,62.0,61.2,54.2,42.8,66,53,37,29.91,29.82,24,6,24,0.00
2013-9-27,87.9,76.5,69.0,61.2,57.5,53.3,65,53,31,29.94,29.82,24,8,24,0.00
2013-9-28,72.8,64.4,52.9,60.3,51.1,39.9,68,62,53,30.06,29.74,18,5,18,0.10
2013-9-29,77.8,60.3,43.4,48.3,37.8,26.6,67,46,23,30.09,29.91,15,3,15,0.00
2013-9-30,78.7,64.9,52.3,53.5,45.5,38.0,66,51,29,29.92,29.73,22,6,22,0.00
2013-10-1,84.1,70.7,60.3,54.8,50.5,42.1,66,51,29,29.96,29.77,12,2,12,0.00
2013-10-2,85.9,71.4,57.8,60.9,52.1,41.6,63,51,39,30.01,29.83,15,3,15,0.00
2013-10-3,81.8,72.2,66.6,63.5,52.4,42.6,65,50,40,29.83,29.73,13,2,13,0.30
2013-10-4,78.6,65.8,62.0,70.0,43.0,37.3,76,44,38,29.88,29.71,18,2,18,1.07
2013-10-5,73.0,56.4,48.3,63.0,43.7,36.0,76,63,45,29.93,29.78,9,1,0,0.00
2013-10-6,52.8,48.4,45.0,45.0,40.4,36.0,79,74,65,29.93,29.77,5,0,0,0.16
2013-10-7,74.7,57.7,45.1,49.0,44.5,38.0,81,64,34,30.05,29.93,8,1,0,0.00
2013-10-8,78.1,62.8,49.5,51.0,47.5,42.0,79,60,35,30.07,29.96,14,2,0,0.00
2013-10-9,77.2,63.6,52.4,54.0,49.7,43.0,79,62,39,30.10,30.01,11,2,0,0.00
2013-10-10,80.2,64.4,52.1,58.0,50.8,45.0,79,63,36,30.07,29.87,7,1,0,0.00
2013-10-11,73.5,66.1,59.3,64.0,57.5,50.0,78,74,69,29.87,29.71,11,3,0,0.00
2013-10-12,67.2,57.4,45.4,44.0,39.6,37.0,79,54,33,30.27,29.98,6,1,0,0.00
2013-10-13,68.2,48.0,38.0,42.0,36.3,31.0,80,67,33,30.47,30.28,4,0,0,0.00
2013-10-14,65.6,54.7,44.4,49.0,39.1,35.0,78,57,40,30.36,29.80,18,2,0,0.02
2013-10-15,60.2,57.2,49.7,52.0,47.2,44.0,80,70,61,29.97,29.75,12,3,0,0.37
2013-10-16,50.9,48.1,40.4,44.0,41.4,32.0,80,77,71,30.04,29.97,7,1,0,0.00
2013-10-17,63.6,50.3,37.9,45.0,37.9,30.0,81,65,37,29.98,29.84,6,1,0,0.00
2013-10-18,51.4,45.2,40.7,39.0,34.7,31.0,81,68,47,30.10,29.98,7,0,0,0.00
2013-10-19,57.2,44.7,37.3,39.0,34.3,32.0,80,68,41,29.99,29.84,6,0,0,0.00
2013-10-20,60.8,46.3,40.7,45.0,38.3,34.0,80,74,57,29.97,29.73,5,0,0,0.00
2013-10-21,44.6,39.9,35.4,36.0,31.7,25.0,80,73,47,30.11,29.96,8,1,0,0.00
2013-10-22,45.7,42.9,37.7,40.0,36.0,30.0,82,77,72,30.12,29.89,11,1,0,0.05
2013-10-23,43.4,38.5,34.4,36.0,31.9,29.0,82,77,64,30.20,30.11,3,0,0,0.03
2013-10-24,37.4,34.7,33.5,31.0,29.1,28.0,82,80,76,30.42,30.20,0,0,0,0.01
2013-10-25,57.4,39.7,28.2,34.0,28.3,22.0,82,66,39,30.46,30.21,12,2,0,0.00
2013-10-26,53.3,44.4,33.9,35.0,30.9,28.0,80,60,41,30.19,30.01,8,1,0,0.00
2013-10-27,56.9,36.2,29.3,36.0,27.9,23.0,81,73,44,30.17,30.00,9,1,0,0.00
2013-10-28,47.2,40.9,39.0,37.0,34.6,33.0,81,78,67,30.31,30.01,6,1,0,0.00
2013-10-29,57.2,49.2,42.3,50.0,42.2,36.0,80,77,70,30.30,30.01,3,0,0,0.01
2013-10-30,66.0,57.6,53.5,58.0,44.7,39.0,76,62,52,30.02,29.67,7,1,0,0.77
2013-10-31,54.0,47.3,43.9,44.0,39.5,34.0,83,75,60,29.68,29.48,7,0,0,0.00
2013-11-1,56.9,47.8,42.5,42.0,39.8,37.0,82,74,55,29.78,29.53,5,1,0,0.00
2013-11-2,52.9,43.6,38.0,40.0,35.6,31.0,82,74,53,30.16,30.12,4,0,0,0.04
2013-11-3,56.3,41.8,35.8,38.0,32.5,28.0,83,71,46,30.17,29.93,12,2,0,0.00
2013-11-4,56.7,51.7,48.8,48.0,43.8,38.0,81,74,63,30.17,29.90,13,3,0,0.09
2013-11-5,57.2,50.0,43.4,43.0,40.3,33.0,81,70,56,30.19,29.79,9,1,0,0.60
2013-11-6,45.3,39.4,32.0,35.0,31.7,28.0,85,74,55,30.31,29.88,10,2,0,0.00
2013-11-7,46.5,37.6,31.2,36.0,29.8,26.0,84,74,51,30.37,30.28,6,1,0,0.00
2013-11-8,60.2,55.8,50.7,39.0,37.9,37.0,63,51,44,29.85,29.80,10,3,0,0.00
2013-11-9,57.6,49.0,37.6,41.0,36.4,30.0,74,62,48,30.33,29.85,8,2,0,0.00
2013-11-10,37.8,32.5,28.3,30.0,26.8,24.0,83,79,72,30.48,30.34,4,1,0,0.00
2013-11-13,47.0,42.2,39.3,24.0,21.1,20.0,48,43,40,30.19,30.07,10,3,0,0.00
2013-11-14,54.4,43.9,37.3,32.0,27.3,21.0,69,53,40,30.07,29.90,10,1,0,0.00
2013-11-15,58.2,45.3,31.2,39.0,34.3,27.0,83,67,45,29.95,29.72,10,2,0,0.00
2013-11-16,67.9,57.8,45.1,59.0,50.8,40.0,82,78,67,29.72,29.31,12,4,0,0.01
2013-11-17,51.7,47.4,41.1,47.0,40.7,36.0,83,77,71,30.00,29.47,11,3,0,0.24
2013-11-18,46.5,39.2,33.3,36.0,32.4,28.0,84,77,61,30.31,29.99,10,2,0,0.00
2013-11-19,56.3,44.2,33.3,35.0,31.6,28.0,85,63,40,30.30,30.01,19,4,0,0.00
2013-11-20,46.7,42.3,38.6,38.0,34.4,27.0,84,74,46,30.04,29.90,17,4,0,0.04
2013-11-21,38.9,33.5,27.5,31.0,26.6,22.0,85,76,65,30.51,30.04,11,2,0,0.00
2013-11-22,27.1,20.5,15.5,22.0,15.7,10.0,86,81,70,30.73,30.52,5,1,0,0.00
2013-11-23,17.8,13.9,9.9,12.0,7.4,4.0,80,75,66,30.94,30.69,5,1,0,0.00
2013-11-24,28.5,22.3,6.2,13.0,10.9,3.0,85,62,47,30.80,30.32,14,4,0,0.00
2013-11-25,38.1,31.3,23.7,29.0,23.4,14.0,84,73,59,30.32,30.14,12,1,0,0.06
2013-11-26,29.9,25.4,16.4,25.0,16.5,9.0,84,69,51,30.45,30.19,13,2,0,0.00
2013-11-27,28.8,20.6,9.9,16.0,11.2,6.0,84,67,50,30.50,30.13,10,1,0,0.00
2013-11-28,32.5,25.7,19.0,20.0,17.0,14.0,79,70,58,30.59,30.10,8,2,0,0.00
2013-11-29,40.2,28.1,14.1,26.0,20.1,10.0,85,73,55,30.60,30.26,9,2,0,0.00
2013-11-30,51.8,39.1,31.1,36.0,30.2,26.0,83,72,52,30.25,30.08,6,0,0,0.01
2013-12-1,42.3,35.1,28.2,31.0,28.8,24.0,84,78,63,30.21,29.94,3,0,0,0.00
2013-12-2,44.3,37.8,33.8,39.0,32.7,29.0,83,82,78,29.94,29.59,4,0,0,0.00
2013-12-3,46.1,40.7,37.3,41.0,32.4,28.0,84,72,65,29.70,29.55,2,0,0,0.00
2013-12-4,38.8,31.2,18.4,28.0,22.8,12.0,86,72,62,30.02,29.56,12,4,0,0.03
2013-12-5,18.0,13.3,7.5,12.0,5.8,0.0,78,71,65,30.52,30.00,12,5,0,0.00
2013-12-6,12.9,7.0,1.5,3.0,-1.2,-5.0,75,69,60,30.80,30.50,10,2,0,0.00
2013-12-7,13.3,6.2,-3.0,2.0,-2.6,-8.0,79,67,52,30.90,30.62,9,0,0,0.00
2013-12-8,20.4,16.6,12.0,17.0,11.2,2.0,86,79,63,30.60,30.09,7,1,0,0.00
2013-12-9,16.8,5.7,1.0,13.0,-0.4,-5.0,86,76,61,30.40,30.16,10,2,0,0.00
2013-12-10,22.6,18.1,5.7,15.0,9.4,-2.0,76,69,57,30.32,30.10,11,2,0,0.00
2013-12-11,28.0,8.3,2.0,24.0,1.8,-5.0,85,74,67,30.74,30.29,12,1,0,0.00
2013-12-12,31.3,19.2,4.1,20.0,11.0,-2.0,84,70,59,30.61,30.19,5,1,0,0.02
2013-12-13,33.0,24.6,17.5,25.0,19.9,14.0,85,82,72,30.19,30.00,6,1,0,0.01
2013-12-14,24.5,20.7,13.0,21.0,16.2,8.0,85,83,78,30.25,30.11,12,3,0,0.00
2013-12-15,20.2,15.4,11.1,12.0,9.3,6.0,83,76,67,30.25,30.11,5,0,0,0.00
2013-12-16,30.0,22.0,13.0,25.0,18.0,9.0,92,84,81,30.18,30.05,8,1,0,0.00
2013-12-17,37.0,30.6,19.7,28.0,22.1,15.0,85,71,50,30.27,30.14,17,3,0,0.01
2013-12-18,49.6,34.9,18.4,34.0,26.3,14.0,84,72,54,30.23,29.78,10,2,0,0.00
2013-12-19,39.3,33.8,30.5,32.0,28.3,24.0,84,80,74,29.92,29.78,10,2,0,0.00
2013-12-20,30.3,26.3,22.7,24.0,21.2,19.0,85,81,77,29.98,29.86,5,1,0,0.00
2013-12-21,28.1,24.3,21.2,25.0,20.4,18.0,92,85,78,29.97,29.82,5,1,0,0.00
2013-12-22,27.9,19.0,6.0,22.0,14.1,1.0,94,81,76,30.44,29.83,12,3,0,0.00
2013-12-23,7.1,2.0,-4.4,1.0,-6.0,-12.0,82,69,59,30.69,30.44,11,2,0,0.00
2013-12-24,19.9,4.8,-10.3,16.0,-2.5,-15.0,85,72,59,30.69,30.29,13,2,0,0.00
2013-12-25,34.5,26.4,20.2,30.0,21.4,16.0,86,81,71,30.34,30.20,9,2,0,0.06
2013-12-26,38.8,30.4,19.8,28.0,23.8,15.0,84,77,65,30.30,30.14,5,0,0,0.10
2013-12-27,49.0,35.5,20.0,33.0,26.8,16.0,85,71,52,30.30,30.11,6,1,0,0.11
2013-12-28,53.2,40.9,26.0,34.0,30.5,22.0,84,68,47,30.11,29.82,12,2,0,0.00
2013-12-29,24.7,8.9,0.1,20.0,-0.2,-9.0,84,67,48,30.45,30.02,16,5,0,0.00
2013-12-30,17.7,8.6,-0.9,14.0,2.4,-9.0,85,76,61,30.44,30.22,10,1,0,0.00
2013-12-31,16.1,10.4,6.2,9.0,5.3,2.0,85,80,70,30.41,30.26,6,1,0,0.00
2014-1-1,10.8,8.0,5.0,7.0,3.4,0.0,89,81,78,30.48,30.28,10,2,0,0.00
2014-1-2,9.2,3.1,-4.6,0.0,-3.1,-9.0,83,75,65,30.61,30.44,10,1,0,0.00